Lapse_Rate
6.4 5.4 6.6 7.0 7.1 6.9 7.2 6.8 7.1 7.4 7.9 7.7 8.7 8.4 8.6 8.5 8.5 8.3 8.1 7.9 7.7 7.6 7.3 7.2 7.6 8.0 7.5 6.8 5.1 5.4 5.2 5.3 5.4 5.7 5.6 5.3 5.5 5.2 4.5 4.3 4.4 5.1 5.6 5.8
5.8 5.2 7.5 6.7 6.8 6.7 6.7 6.7 7.0 7.6 7.8 7.7 8.2 8.0 8.7 8.6 8.5 8.4 8.1 8.1 7.8 7.8 7.4 7.2 7.4 7.4 7.5 7.7 6.9 6.2 6.0 5.6 5.0 5.3 5.2 5.3 5.3 5.0 4.8 5.1 5.2 5.5 5.6 5.8
6.7 7.7 7.0 6.8 6.8 6.6 6.5 6.6 7.3 7.8 8.0 7.8 7.9 8.1 8.6 8.4 8.3 8.4 8.5 8.3 7.9 8.0 7.4 7.3 7.5 7.4 7.2 7.4 7.6 7.4 7.1 6.4 5.5 5.6 5.5 5.5 5.4 4.8 5.2 5.2 5.2 5.4 5.6 5.8
5.9 7.3 6.8 7.0 6.5 6.7 6.4 7.3 7.6 7.6 7.0 7.4 8.1 7.1 8.3 8.2 8.3 8.2 8.6 8.5 8.1 8.0 7.7 7.8 7.7 7.4 7.1 7.0 7.3 7.5 7.6 7.4 7.1 6.7 6.4 5.6 5.6 5.6 5.6 5.5 5.7 5.7 5.9 6.1
5.9 7.4 7.0 6.6 7.8 6.6 7.2 7.8 7.9 7.6 7.3 7.5 7.6 7.6 8.0 7.9 8.0 8.2 8.4 8.5 8.2 7.9 7.8 7.9 7.7 7.5 7.3 7.0 6.9 7.0 7.1 7.1 7.1 7.3 7.4 7.2 6.7 6.4 6.2 6.3 6.5 6.6 6.6 6.7
5.9 6.8 6.6 7.0 7.9 6.9 7.8 7.3 7.7 7.4 7.0 6.4 7.7 7.7 7.8 8.0 7.9 8.2 8.3 8.5 8.4 8.1 8.0 7.8 7.6 7.7 7.7 7.6 7.5 7.4 7.3 7.2 7.2 7.1 7.0 7.2 7.1 7.0 6.9 6.9 7.1 7.1 7.0 7.1
5.3 5.7 6.4 6.8 7.0 6.9 6.9 6.7 6.7 6.5 5.8 5.4 7.9 7.2 7.9 8.3 7.9 8.1 8.3 8.5 8.5 8.2 8.1 8.0 8.0 8.0 7.9 7.9 7.7 7.6 7.6 7.6 7.5 7.3 7.2 7.2 7.1 7.0 7.2 7.2 7.3 7.1 7.1 7.1
5.6 5.5 6.3 6.5 6.7 7.2 6.9 6.8 6.8 6.7 5.5 5.9 7.8 6.4 8.1 8.2 7.9 8.2 8.3 8.2 8.3 8.2 8.3 8.2 8.2 8.0 8.0 7.9 7.7 7.6 7.6 7.6 7.6 7.6 7.5 7.4 7.4 7.4 7.5 7.4 7.4 7.4 7.4 7.2
6.2 5.6 7.0 7.3 7.7 7.3 7.4 6.8 7.8 7.5 6.2 5.9 7.4 7.4 8.2 7.9 7.9 8.3 8.6 8.2 8.2 8.3 8.3 8.3 8.2 8.1 8.0 7.9 7.9 7.9 7.7 7.6 7.6 7.7 7.6 7.7 7.6 7.7 7.7 7.6 7.5 7.8 7.8 7.5
6.9 6.5 7.1 7.4 7.5 7.6 7.7 8.1 7.7 7.4 6.0 5.8 6.1 6.9 7.1 8.0 8.0 8.3 8.3 8.1 8.2 8.3 8.4 8.4 8.3 8.2 8.1 8.0 7.9 7.6 7.5 7.6 7.7 7.6 7.6 7.6 7.5 7.5 7.6 7.5 7.3 7.3 7.3 7.1
7.1 6.8 7.2 7.9 7.4 7.7 7.5 7.4 7.8 8.0 7.9 5.8 5.5 7.1 7.9 8.2 8.1 8.5 8.5 8.3 8.6 8.5 8.4 8.3 8.2 8.3 8.4 8.2 8.1 8.1 7.7 7.7 7.8 7.5 7.4 7.3 7.3 7.2 7.3 7.2 7.2 7.0 6.9 6.8
6.9 7.1 7.0 7.8 7.7 8.1 8.1 8.0 7.9 8.1 6.8 7.0 6.8 7.1 8.1 8.0 8.5 8.4 8.3 8.7 8.6 8.7 8.4 8.2 8.1 8.1 8.2 8.2 8.3 8.3 8.2 7.9 7.6 7.7 7.2 5.8 5.9 6.7 6.6 6.9 6.8 6.6 6.6 6.7
7.6 6.8 7.0 7.5 7.6 7.5 7.7 8.0 7.9 7.9 8.2 7.2 6.2 7.1 8.6 8.4 8.4 8.7 8.5 8.4 8.5 8.6 8.5 8.4 8.3 8.1 8.1 8.2 8.3 8.5 8.5 8.4 8.0 7.7 7.3 7.1 7.0 7.1 7.1 6.9 7.0 6.7 6.5 5.8
7.5 7.1 6.9 6.5 7.0 7.9 7.8 8.0 8.2 8.0 7.7 7.3 7.0 7.7 8.2 8.5 8.5 8.5 8.6 8.9 8.9 8.7 8.6 8.5 8.6 8.7 8.5 8.4 8.3 8.2 8.2 8.2 8.0 7.8 7.6 7.5 7.2 7.5 7.2 7.2 6.9 6.9 6.7 6.5
7.5 7.0 7.0 7.2 7.7 7.8 7.6 7.9 7.9 7.7 7.6 7.7 7.5 7.7 8.3 8.6 8.7 8.9 8.6 8.9 8.8 8.8 8.8 8.6 8.7 8.8 8.9 9.0 8.9 8.3 8.2 8.1 8.0 7.8 7.5 7.4 7.3 7.2 6.9 7.1 7.3 7.2 7.1 7.0
6.7 7.2 7.3 7.6 7.9 7.6 7.5 7.5 7.4 7.3 7.4 7.7 7.7 7.6 8.4 8.5 8.7 8.8 8.6 8.8 8.9 9.0 8.9 8.7 8.8 9.0 8.8 8.7 8.8 8.6 8.3 8.3 8.1 7.7 7.4 7.3 7.2 7.1 7.1 7.2 7.1 7.3 7.1 6.9
6.5 6.6 7.5 7.3 7.9 7.9 7.1 6.7 7.0 7.0 7.1 7.2 7.5 7.7 8.1 8.3 8.5 8.7 8.8 8.8 9.0 8.7 8.7 9.0 9.0 8.9 8.8 8.5 8.4 8.1 8.0 7.9 7.9 7.6 7.4 7.2 7.1 7.0 7.0 7.1 7.1 7.0 6.8 6.8
5.9 6.5 6.6 7.1 7.4 6.0 6.3 7.5 7.3 7.7 7.7 7.9 7.9 8.0 8.3 8.5 8.5 8.4 8.7 8.9 9.2 9.0 8.9 9.1 9.0 8.6 8.4 8.3 8.1 7.8 7.8 7.8 7.5 7.2 7.1 7.0 6.8 6.8 7.0 7.2 7.1 6.9 6.8 6.8
7.1 6.7 6.2 6.5 7.3 7.3 6.7 7.4 7.2 7.0 7.1 7.7 8.1 8.3 8.5 8.5 8.6 8.2 8.6 8.8 9.0 9.1 9.1 9.1 9.0 8.9 8.6 8.2 8.2 7.8 7.7 7.6 7.4 7.1 6.9 6.9 6.9 7.0 7.1 7.1 7.0 6.7 6.7 6.7
7.6 7.1 6.8 6.7 6.5 5.6 7.1 7.9 7.7 6.7 6.8 7.9 7.9 7.9 8.1 8.4 8.3 8.4 8.4 8.6 8.8 9.1 9.2 9.1 9.0 8.6 8.1 8.1 8.3 8.1 7.7 7.5 7.3 7.1 6.9 6.7 6.9 7.0 6.9 6.8 6.8 6.9 6.9 6.8
7.4 7.3 7.0 7.1 6.7 7.1 7.7 7.7 8.1 6.3 6.6 7.1 6.3 7.4 8.0 7.9 7.8 8.4 8.8 8.8 9.0 9.1 9.0 8.7 8.6 8.5 8.4 8.2 8.0 7.8 7.6 7.5 7.3 7.2 7.0 6.9 6.8 6.8 6.8 6.9 6.8 6.7 6.6 6.6
7.7 7.7 7.5 7.4 6.9 6.7 7.8 7.8 7.8 7.5 7.3 7.2 7.0 7.3 7.6 7.7 7.5 8.1 8.7 8.7 8.9 8.9 8.8 8.6 8.5 8.4 8.2 8.1 7.8 7.6 7.6 7.5 7.3 7.2 7.0 6.9 6.8 6.8 6.8 6.8 6.7 6.6 6.4 6.1
7.4 7.7 7.7 7.9 7.5 7.6 7.5 8.1 8.0 7.9 6.4 7.3 7.6 7.6 7.8 7.6 7.9 8.3 8.4 8.6 8.9 8.7 8.5 8.4 8.3 8.1 8.1 8.0 7.9 7.8 7.6 7.6 7.4 7.3 7.1 7.0 6.9 6.8 6.8 6.7 6.5 6.2 5.9 5.6
7.5 7.8 7.8 7.8 7.6 7.1 7.9 8.0 7.9 7.9 7.2 7.1 7.5 7.6 7.7 7.7 8.1 8.4 8.4 8.5 8.7 8.7 8.4 8.0 8.0 7.9 8.1 8.1 8.0 8.1 8.0 7.9 7.5 7.5 7.4 7.0 6.8 6.7 6.5 6.3 6.3 6.2 6.1 5.8
7.6 8.2 8.1 7.7 7.0 7.7 7.8 8.0 7.9 7.8 7.8 7.7 7.4 7.7 7.7 7.6 8.0 8.4 8.3 8.5 8.5 8.5 8.3 8.2 7.9 7.9 8.0 8.1 8.2 8.2 8.0 7.9 7.6 7.3 7.2 6.9 6.7 6.6 6.4 6.1 6.1 5.9 5.7 5.5
7.6 7.4 7.4 7.5 8.0 8.1 7.9 7.9 8.1 7.6 7.7 7.4 7.3 7.7 7.4 7.2 7.3 7.6 7.7 7.8 7.7 7.8 7.7 7.7 7.9 8.0 7.9 7.8 7.8 7.7 7.7 7.4 7.2 6.9 6.6 6.6 6.4 6.2 6.2 5.9 5.7 5.6 5.4 5.4
Wind_Speed
5 4 16 15 9 3 4 3 5 8 15 3 10 6 10 5 6 8 8 8 8 10 7 11 11 11 11 11 11 10 12 11 9 5 5 3 3 3 3 9 14 16 15 17
3 12 14 6 8 9 6 5 10 11 18 4 9 9 6 7 9 11 10 9 8 8 12 9 10 11 11 11 12 10 11 12 11 8 6 3 3 2 3 6 9 14 14 15
14 7 10 15 7 8 8 10 8 11 7 5 5 5 4 4 5 6 8 5 7 13 15 11 13 12 12 11 13 10 10 11 10 12 3 2 3 3 2 2 2 5 12 13
8 10 7 6 10 11 11 11 13 9 3 5 3 5 4 6 10 7 10 9 9 11 11 10 11 12 13 12 8 9 8 9 9 7 7 6 4 4 3 4 3 5 13 13
8 9 18 17 14 9 12 7 9 9 6 3 1 1 7 2 6 11 17 14 12 14 15 14 14 13 11 12 12 10 9 11 12 11 6 6 4 4 3 3 5 5 6 14
8 4 9 11 19 13 6 4 4 1 3 3 5 5 5 6 9 9 10 15 13 14 15 14 11 10 9 7 9 11 11 12 14 14 10 10 9 7 5 5 6 5 5 5
4 11 3 3 7 7 5 3 3 2 1 5 3 3 8 8 8 9 10 13 13 12 13 13 15 13 12 11 12 12 13 15 14 14 15 13 12 10 11 10 8 7 5 5
12 5 15 8 16 6 8 9 5 5 4 4 0 5 6 7 6 9 12 13 13 12 13 16 17 15 15 16 16 16 17 17 17 16 16 14 14 9 10 11 10 8 8 9
6 7 5 9 7 17 5 5 10 6 3 2 4 7 8 8 8 6 10 8 9 12 14 17 16 17 17 17 20 20 19 19 19 19 16 16 14 16 13 12 7 7 5 5
3 3 8 4 8 11 10 8 4 1 5 4 3 5 6 8 8 6 6 10 12 12 12 12 14 15 16 18 17 18 19 21 20 17 16 14 13 11 11 6 7 7 3 3
9 2 6 6 6 8 4 4 2 4 4 6 1 6 7 10 9 8 8 9 12 13 13 14 13 14 16 14 15 17 18 20 18 16 11 7 6 7 6 7 6 7 6 7
9 6 10 10 3 3 5 6 6 5 3 1 5 7 4 8 6 3 7 9 10 13 15 15 15 14 14 16 16 19 20 19 16 11 9 12 18 18 14 12 11 12 12 11
6 6 1 5 5 5 5 5 4 4 3 8 6 6 2 5 4 6 7 7 8 12 10 12 12 14 15 15 16 17 17 17 14 16 20 18 16 15 15 12 13 12 12 14
6 5 15 17 3 5 4 1 1 6 6 5 7 10 6 11 6 8 8 8 7 8 15 14 12 13 14 15 16 16 14 14 15 18 15 16 15 12 12 13 13 16 15 11
4 9 5 12 13 5 3 3 1 5 13 13 11 16 12 10 10 8 8 7 7 9 6 11 13 10 8 8 8 9 9 12 14 16 14 10 5 4 5 7 9 6 7 8
7 5 3 8 10 12 16 10 7 5 9 5 4 9 7 12 6 5 9 8 8 10 9 9 6 7 8 8 6 5 6 6 9 9 10 7 6 5 4 5 5 6 6 8
4 5 3 4 6 4 8 9 17 6 6 6 5 7 6 8 10 9 10 9 10 12 13 12 14 14 10 7 8 8 7 8 8 9 9 8 8 7 6 6 7 7 7 7
6 2 0 2 4 5 4 10 18 14 15 14 7 8 8 11 14 8 7 9 11 11 13 12 11 7 7 7 10 9 9 8 8 8 8 9 10 9 8 8 7 6 7 8
10 3 1 3 4 4 1 4 6 7 14 10 11 12 8 8 4 5 5 9 11 12 11 6 6 7 10 10 9 9 9 8 8 8 8 7 8 9 8 8 8 7 8 8
7 5 5 3 4 5 5 13 6 1 5 5 6 6 3 4 2 6 6 5 8 7 5 11 11 12 12 10 10 10 8 8 7 8 8 8 8 8 8 8 9 6 8 9
4 2 6 4 4 7 8 5 6 4 6 10 6 8 6 2 8 6 3 5 6 5 10 11 11 11 13 11 11 9 8 7 8 9 9 8 7 8 8 8 7 8 9 9
4 5 3 3 3 6 4 1 5 4 3 2 6 6 8 8 11 8 7 6 9 11 12 10 11 11 10 10 10 9 8 8 9 10 9 8 8 6 6 9 8 8 8 9
3 6 4 6 5 5 4 2 2 2 2 4 0 3 4 7 5 6 6 6 4 9 10 9 11 11 8 8 10 11 8 11 11 10 9 9 9 8 6 9 7 6 7 7
4 2 2 3 5 9 7 3 6 7 6 5 4 2 6 6 6 2 5 4 5 7 10 9 11 9 7 6 8 11 12 12 11 11 10 9 9 9 8 6 5 6 6 6
5 1 3 4 7 6 6 8 7 10 8 4 4 3 3 8 4 1 2 6 6 6 6 7 9 10 9 9 9 8 10 13 12 11 10 9 8 9 9 9 6 6 4 4
3 6 2 7 9 6 7 8 7 4 3 4 2 5 4 4 2 3 4 5 6 8 8 11 11 12 10 11 10 8 9 13 14 12 7 7 8 7 8 9 10 18 15 18
Wind_Direction
187 168 229 208 210 161 152 250 277 269 279 318 284 253 253 204 225 236 211 215 190 188 163 167 165 162 173 175 179 164 166 164 175 169 169 170 165 148 155 166 177 176 186 189
183 222 225 180 196 214 216 238 264 291 263 170 269 263 261 194 227 223 207 211 199 162 181 165 159 165 182 174 183 183 172 171 182 183 189 184 146 152 167 177 178 186 183 184
201 187 198 201 186 205 216 213 244 230 322 263 238 288 276 244 274 258 228 197 197 186 191 184 173 173 186 186 184 182 179 167 181 186 147 102 92 88 137 162 182 199 195 191
230 231 240 178 213 202 236 212 236 259 266 255 141 265 276 235 237 247 247 207 201 187 189 183 175 170 185 193 186 174 185 173 183 181 179 189 181 172 182 168 181 200 204 203
218 212 212 226 229 173 237 191 206 239 228 195 256 117 265 165 256 239 244 229 204 191 186 185 187 183 187 182 181 178 177 184 192 196 189 189 186 181 179 177 191 212 212 207
210 191 180 210 229 189 237 237 267 152 154 213 225 178 243 217 216 241 235 239 207 181 186 186 184 171 182 183 180 180 181 189 188 191 199 191 191 183 185 201 203 206 215 214
221 234 212 179 222 196 158 146 288 279 230 219 194 209 244 249 229 218 224 217 210 184 176 177 179 181 180 188 190 187 190 197 196 198 204 203 197 196 202 205 211 204 217 220
208 244 212 189 207 183 184 171 180 212 198 246 284 240 249 234 254 231 218 209 203 180 181 184 187 186 187 190 189 191 193 202 204 206 210 209 210 210 217 217 216 214 215 218
182 241 243 203 174 195 210 174 203 118 37 80 239 285 300 289 285 220 205 165 191 196 186 193 187 189 189 193 195 193 197 203 206 208 211 213 214 218 221 220 219 220 213 224
273 274 218 209 180 225 212 163 125 349 156 219 266 273 239 286 282 188 183 192 206 202 202 200 196 195 197 201 197 196 201 206 209 211 216 219 220 222 229 213 211 215 199 162
208 100 296 199 203 176 177 185 96 128 143 170 190 258 226 238 228 224 198 207 195 197 200 203 202 206 205 200 199 205 206 210 211 210 210 208 220 220 205 218 186 175 150 153
217 181 235 241 251 203 189 189 157 151 188 188 151 261 233 250 240 234 224 202 202 197 203 201 203 201 200 206 200 205 208 212 207 183 169 194 215 208 204 199 180 182 175 175
184 228 158 309 260 237 206 179 158 109 74 186 156 259 208 297 280 263 250 224 213 200 195 204 204 204 206 208 208 209 207 207 195 186 200 209 216 215 209 189 186 182 184 206
262 200 207 225 248 154 192 89 325 198 204 183 203 242 266 274 242 268 245 212 229 205 195 201 209 205 208 212 210 212 205 195 187 195 200 207 214 207 198 194 193 196 204 210
346 228 232 226 217 128 280 268 282 261 240 211 212 226 226 231 244 232 256 226 202 223 191 187 196 195 198 201 201 205 194 186 184 195 198 201 152 161 165 191 197 185 164 175
322 292 199 236 205 198 216 237 244 252 272 236 249 227 223 230 238 225 236 208 210 229 203 198 205 169 194 187 161 133 146 146 149 151 160 143 132 135 122 114 120 113 121 132
298 314 51 243 175 84 282 223 247 239 276 288 257 218 252 253 236 236 240 205 212 217 218 177 199 193 187 164 160 161 144 128 138 145 137 128 130 140 145 142 129 132 136 131
235 279 85 239 101 220 237 207 223 224 245 238 244 266 250 237 244 237 228 216 220 209 221 193 192 162 146 130 150 130 133 132 133 137 139 145 148 149 146 133 125 114 111 117
197 164 28 284 226 301 323 236 200 172 247 220 227 248 260 254 258 294 236 213 220 198 206 166 136 127 134 148 133 126 120 124 131 136 139 143 142 137 131 120 116 111 110 107
151 140 152 120 274 221 239 227 204 326 287 240 206 251 333 50 186 247 239 212 209 178 133 133 127 134 145 152 135 129 131 134 135 138 135 131 129 128 122 123 122 114 118 120
134 136 184 173 227 288 253 282 96 244 250 18 317 276 298 191 218 256 191 198 166 140 128 127 132 143 150 144 142 140 140 143 132 124 124 123 121 119 122 114 118 121 113 101
178 148 193 130 190 251 200 261 165 199 280 95 300 322 307 255 276 276 248 199 160 130 123 124 126 131 138 139 138 139 137 128 121 119 115 111 108 109 110 113 100 94 101 100
246 191 189 161 220 257 286 108 183 109 220 207 296 288 264 273 269 306 291 129 106 121 122 116 121 123 131 142 140 130 131 124 121 117 109 100 88 86 87 104 100 95 97 104
277 163 216 63 226 226 217 212 198 191 192 265 252 290 312 294 291 287 82 15 105 120 121 124 121 117 110 112 117 129 132 125 116 105 97 94 90 81 69 70 79 101 114 122
231 200 228 221 271 292 264 246 223 203 216 202 260 189 255 296 325 293 104 108 98 78 82 103 109 110 100 99 100 111 120 115 106 102 102 100 96 95 86 68 71 87 62 114
14 340 279 260 234 206 248 241 228 234 221 204 148 322 48 351 353 112 93 95 106 100 98 86 86 91 90 92 87 92 113 122 121 115 110 109 109 106 107 104 87 68 79 83